Location: Brunembert
(50.7122°N, 1.8935°E)
Time: 09:01:20
(UTC+00:00)

ATLAS 5 CENTAUR R/B - Pass Details

Date: 22 April 2021
Orbit: 516 x 1141 km, 63.3° (Epoch: 02 May)

Event Time Altitude Azimuth Distance (km) Brightness Sun altitude
Rises 23:15:53 0° 315° (NW) 3,078 5.9 -26.3°
Reaches altitude 10° 23:18:11 10° 323° (NW) 2,249 5.2 -26.4°
Maximum altitude 23:23:07 41° 34° (NE) 1,192 3.2 -26.5°
Enters shadow 23:27:06 19° 95° (E) 2,044 4.1 -26.5°
